Flag for U.S.A. Weather past 2 weeks in Cumberland, Maryland, U.S.A.

Now
70 °F

Sunny.


Feels Like: 77 °F
Forecast: 51 / 79 °F
Wind: 5 mph from Southwest

Location: Eastern West Virginia Regional Airport

Current Time: Jul 30, 2014 at 12:07:41 PM

Latest Report: Jul 30, 2014 at 10:53 AM


Visibility: 10 mi

Pressure: 30.09 "Hg

Humidity: 51%

Dew point: 51 °F

Location of CumberlandLocation

Historic Weather in Cumberland — Graph

°F

Cumberland temperature yesterday

Maximum temperature yesterday: 73 °F (at 2:53 PM)
Minimum temperature yesterday: 56 °F (at 10:53 PM)
Average temperature yesterday: 64 °F

Past Weeks' High & Low Weather Summary

 TemperatureHumidityPressure
High93 °F (Jul 23, 2:53 PM)90% (Jul 18, 6:53 AM)30.26 "Hg (Jul 18, 6:53 AM)
Low50 °F (Jul 30, 5:53 AM)32% (Jul 16, 4:53 PM)29.58 "Hg (Jul 28, 4:53 AM)
Average72 °F65%29.99 "Hg
* Reported Jul 15 10:53 AM — Jul 30 10:53 AM, Cumberland, Weather by CustomWeather, © 2014

Note: Actual official high and low records may vary slightly from our data, if they occured in-between our weather recording intervals... More about our weather records

Advertising

Cumberland weather history for previous 24 hours

 ConditionsComfort  
Time TempWeatherWind HumidityBarometerVisibility
10:53 AM
Jul 30
70 °FSunny.5 mph51%30.09 "Hg10 mi
9:53 AM65 °FSunny.No wind63%30.09 "Hg10 mi
8:53 AM59 °FSunny.No wind75%30.09 "Hg10 mi
7:53 AM54 °FSunny.No wind83%30.09 "Hg9 mi
6:53 AM51 °FFog.No wind86%30.08 "Hg5 mi
5:53 AM50 °FFog.No wind86%30.06 "Hg5 mi
4:53 AM51 °FClear.No wind86%30.04 "Hg7 mi
3:53 AM51 °FClear.No wind86%30.03 "Hg7 mi
2:53 AM53 °FClear.No wind83%30.03 "Hg9 mi
1:53 AM53 °FClear.3 mph83%30.04 "Hg9 mi
12:53 AM55 °FClear.5 mph80%30.04 "Hg10 mi
11:53 PM
Jul 29
56 °FClear.No wind77%30.03 "Hg10 mi
10:53 PM56 °FClear.No wind77%30.04 "Hg10 mi
9:53 PM59 °FPassing clouds.No wind72%30.03 "Hg10 mi
8:53 PM60 °FScattered clouds.No wind69%30.01 "Hg10 mi
7:53 PM67 °FSunny.7 mph49%30.01 "Hg10 mi
6:53 PM69 °FSunny.8 mph44%30.00 "Hg10 mi
5:53 PM71 °FSunny.10 mph39%29.99 "Hg10 mi
4:53 PM70 °FOvercast.13 mph39%29.98 "Hg10 mi
3:53 PM72 °FSunny.14 mph37%29.97 "Hg10 mi
2:53 PM73 °FScattered clouds.12 mph38%29.96 "Hg10 mi
1:53 PM70 °FPartly sunny.9 mph44%29.96 "Hg10 mi
12:53 PM69 °FPartly sunny.9 mph47%29.96 "Hg10 mi
Weather by CustomWeather, © 2014

See weather overviewHow to use our weather pages